Location: Iesi
(43.5167°N, 13.2333°E)
Time: 19:21:27
(UTC+00:00)

Cosmos 468 Rocket - Pass Details

Date: 08 August 2020
Orbit: 744 x 779 km, 74.0° (Epoch: 24 September)

Event Time Altitude Azimuth Distance (km) Brightness Sun altitude
Rises 21:38:15 0° 335° (NNW) 3,272 8.6 -26.9°
Reaches altitude 10° 21:40:41 10° 331° (NNW) 2,338 7.5 -27.1°
Maximum altitude 21:45:51 54° 255° (WSW) 942 4.4 -27.4°
Enters shadow 21:45:52 54° 255° (WSW) 942 4.4 -27.4°
